owner,sensor,date,latitude,longitude,vertical_datum,direction_of_sea_water_velocity,sea_water_speed,upward_sea_water_velocity,qcFlag 
TABS,ioos:station:wmo:42043:1,2007-06-01T00:00:00Z,28.9818,-94.9186,2.0,254.6687023,56.35541234,-99999.0,'11111222,11111222,99999999' 
TABS,ioos:station:wmo:42043:1,2007-06-01T00:30:00Z,28.9818,-94.9186,2.0,258.4180741,55.43873195,-99999.0,'11111222,11111222,99999999' 
TABS,ioos:station:wmo:42043:1,2007-06-01T01:00:00Z,28.9818,-94.9186,2.0,257.5646706,56.93564437,-99999.0,'11111222,11111222,99999999' 
TABS,ioos:station:wmo:42043:1,2007-06-01T01:30:00Z,28.9818,-94.9186,2.0,258.4328162,55.55829821,-99999.0,'11111222,11111222,99999999' 
TABS,ioos:station:wmo:42043:1,2007-06-01T02:00:00Z,28.9818,-94.9186,2.0,259.3227369,54.13724134,-99999.0,'11111222,11111222,99999999' 
TABS,ioos:station:wmo:42043:1,2007-06-01T02:30:00Z,28.9818,-94.9186,2.0,260.6623869,48.93840721,-99999.0,'11111222,11111222,99999999' 
TABS,ioos:station:wmo:42043:1,2007-06-01T03:00:00Z,28.9818,-94.9186,2.0,265.634517,47.03643694,-99999.0,'11111222,11111222,99999999' 
TABS,ioos:station:wmo:42043:1,2007-06-01T03:30:00Z,28.9818,-94.9186,2.0,264.6423129,49.05427606,-99999.0,'11111222,11111222,99999999' 
TABS,ioos:station:wmo:42043:1,2007-06-01T04:00:00Z,28.9818,-94.9186,2.0,266.7221368,44.60295282,-99999.0,'11111222,11111222,99999999' 
TABS,ioos:station:wmo:42043:1,2007-06-01T04:30:00Z,28.9818,-94.9186,2.0,268.7722609,47.62092502,-99999.0,'11111222,11111222,99999999' 
TABS,ioos:station:wmo:42043:1,2007-06-01T05:00:00Z,28.9818,-94.9186,2.0,274.67071,47.40740554,-99999.0,'11111222,11111222,99999999' 
TABS,ioos:station:wmo:42043:1,2007-06-01T05:30:00Z,28.9818,-94.9186,2.0,275.955721,46.3602006,-99999.0,'11111222,11111222,99999999' 
TABS,ioos:station:wmo:42043:1,2007-06-01T06:00:00Z,28.9818,-94.9186,2.0,278.6921037,45.59360701,-99999.0,'11111222,11111222,99999999' 
TABS,ioos:station:wmo:42043:1,2007-06-01T06:30:00Z,28.9818,-94.9186,2.0,276.97483,42.0007869,-99999.0,'11111222,11111222,99999999' 
TABS,ioos:station:wmo:42043:1,2007-06-01T07:00:00Z,28.9818,-94.9186,2.0,278.450632,41.51064442,-99999.0,'11111222,11111222,99999999' 
TABS,ioos:station:wmo:42043:1,2007-06-01T07:30:00Z,28.9818,-94.9186,2.0,274.4464286,41.79577132,-99999.0,'11111222,11111222,99999999' 
TABS,ioos:station:wmo:42043:1,2007-06-01T08:00:00Z,28.9818,-94.9186,2.0,274.4762006,44.46560244,-99999.0,'11111222,11111222,99999999' 
TABS,ioos:station:wmo:42043:1,2007-06-01T08:30:00Z,28.9818,-94.9186,2.0,279.9290519,41.00410955,-99999.0,'11111222,11111222,99999999' 
TABS,ioos:station:wmo:42043:1,2007-06-01T09:00:00Z,28.9818,-94.9186,2.0,274.9988214,41.54800236,-99999.0,'11111222,11111222,99999999' 
TABS,ioos:station:wmo:42043:1,2007-06-01T09:30:00Z,28.9818,-94.9186,2.0,273.1786911,40.9429762,-99999.0,'11111222,11111222,99999999' 
TABS,ioos:station:wmo:42043:1,2007-06-01T10:00:00Z,28.9818,-94.9186,2.0,269.5277779,38.86131753,-99999.0,'11111222,11111222,99999999' 
TABS,ioos:station:wmo:42043:1,2007-06-01T10:30:00Z,28.9818,-94.9186,2.0,268.7094215,38.63979555,-99999.0,'11111222,11111222,99999999' 
TABS,ioos:station:wmo:42043:1,2007-06-01T11:00:00Z,28.9818,-94.9186,2.0,261.4942066,39.07980169,-99999.0,'11111222,11111222,99999999' 
TABS,ioos:station:wmo:42043:1,2007-06-01T11:30:00Z,28.9818,-94.9186,2.0,260.537279,38.92968019,-99999.0,'11111222,11111222,99999999' 
TABS,ioos:station:wmo:42043:1,2007-06-01T12:00:00Z,28.9818,-94.9186,2.0,263.5996321,37.05090147,-99999.0,'11111222,11111222,99999999' 
TABS,ioos:station:wmo:42043:1,2007-06-01T12:30:00Z,28.9818,-94.9186,2.0,258.5071441,30.16477582,-99999.0,'11111222,11111222,99999999' 
TABS,ioos:station:wmo:42043:1,2007-06-01T13:00:00Z,28.9818,-94.9186,2.0,258.176887,31.77404759,-99999.0,'11111222,11111222,99999999' 
TABS,ioos:station:wmo:42043:1,2007-06-01T13:30:00Z,28.9818,-94.9186,2.0,255.0153875,30.05185186,-99999.0,'11111222,11111222,99999999' 
TABS,ioos:station:wmo:42043:1,2007-06-01T14:00:00Z,28.9818,-94.9186,2.0,258.8690473,26.93668317,-99999.0,'11111222,11111222,99999999' 
TABS,ioos:station:wmo:42043:1,2007-06-01T14:30:00Z,28.9818,-94.9186,2.0,259.5511968,27.12985072,-99999.0,'11111222,11111222,99999999' 
TABS,ioos:station:wmo:42043:1,2007-06-01T15:00:00Z,28.9818,-94.9186,2.0,262.5217321,26.58610915,-99999.0,'11111222,11111222,99999999' 
TABS,ioos:station:wmo:42043:1,2007-06-01T15:30:00Z,28.9818,-94.9186,2.0,261.322614,25.18829093,-99999.0,'11111222,11111222,99999999' 
TABS,ioos:station:wmo:42043:1,2007-06-01T16:00:00Z,28.9818,-94.9186,2.0,264.4933445,26.78358639,-99999.0,'11111222,11111222,99999999' 
TABS,ioos:station:wmo:42043:1,2007-06-01T16:30:00Z,28.9818,-94.9186,2.0,254.5590875,23.85084066,-99999.0,'11111222,11111222,99999999' 
TABS,ioos:station:wmo:42043:1,2007-06-01T17:00:00Z,28.9818,-94.9186,2.0,260.5710684,25.08893382,-99999.0,'11111222,11111222,99999999' 
TABS,ioos:station:wmo:42043:1,2007-06-01T17:30:00Z,28.9818,-94.9186,2.0,263.2084261,24.69325414,-99999.0,'11111222,11111222,99999999' 
TABS,ioos:station:wmo:42043:1,2007-06-01T18:00:00Z,28.9818,-94.9186,2.0,268.1793027,22.98159699,-99999.0,'11111222,11111222,99999999' 
TABS,ioos:station:wmo:42043:1,2007-06-01T18:30:00Z,28.9818,-94.9186,2.0,256.880441,23.79094155,-99999.0,'11111222,11111222,99999999' 
TABS,ioos:station:wmo:42043:1,2007-06-01T19:00:00Z,28.9818,-94.9186,2.0,244.4777056,21.86342379,-99999.0,'11111222,11111222,99999999' 
TABS,ioos:station:wmo:42043:1,2007-06-01T19:30:00Z,28.9818,-94.9186,2.0,253.6009941,14.23924155,-99999.0,'11111222,11111222,99999999' 
TABS,ioos:station:wmo:42043:1,2007-06-01T20:00:00Z,28.9818,-94.9186,2.0,246.2286332,18.5322017,-99999.0,'11111222,11111222,99999999' 
TABS,ioos:station:wmo:42043:1,2007-06-01T20:30:00Z,28.9818,-94.9186,2.0,247.0888448,13.33171032,-99999.0,'11111222,11111222,99999999' 
TABS,ioos:station:wmo:42043:1,2007-06-01T21:00:00Z,28.9818,-94.9186,2.0,248.7545663,21.80166049,-99999.0,'11111222,11111222,99999999' 
TABS,ioos:station:wmo:42043:1,2007-06-01T21:30:00Z,28.9818,-94.9186,2.0,245.7050344,10.15972441,-99999.0,'11111222,11111222,99999999' 
TABS,ioos:station:wmo:42043:1,2007-06-01T22:00:00Z,28.9818,-94.9186,2.0,238.2472436,19.68647251,-99999.0,'11111222,11111222,99999999' 
TABS,ioos:station:wmo:42043:1,2007-06-01T22:30:00Z,28.9818,-94.9186,2.0,230.1357503,15.08659339,-99999.0,'11111222,11111222,99999999' 
TABS,ioos:station:wmo:42043:1,2007-06-01T23:00:00Z,28.9818,-94.9186,2.0,254.5698908,20.14611625,-99999.0,'11111222,11111222,99999999' 
TABS,ioos:station:wmo:42043:1,2007-06-01T23:30:00Z,28.9818,-94.9186,2.0,254.2924688,11.56173862,-99999.0,'11111222,11111222,99999999' 
TABS,ioos:station:wmo:42043:1,2007-06-02T00:00:00Z,28.9818,-94.9186,2.0,258.7519374,18.04661741,-99999.0,'11111222,11111222,99999999' 
TABS,ioos:station:wmo:42043:1,2007-06-02T00:30:00Z,28.9818,-94.9186,2.0,264.6228862,14.51385889,-99999.0,'11111222,11111222,99999999' 
TABS,ioos:station:wmo:42043:1,2007-06-02T01:00:00Z,28.9818,-94.9186,2.0,268.3534684,24.01991257,-99999.0,'11111222,11111222,99999999' 
TABS,ioos:station:wmo:42043:1,2007-06-02T01:30:00Z,28.9818,-94.9186,2.0,268.456571,30.08090757,-99999.0,'11111222,11111222,99999999' 
TABS,ioos:station:wmo:42043:1,2007-06-02T02:00:00Z,28.9818,-94.9186,2.0,261.4319866,25.37314525,-99999.0,'11111222,11111222,99999999' 
TABS,ioos:station:wmo:42043:1,2007-06-02T02:30:00Z,28.9818,-94.9186,2.0,257.7189458,26.04599969,-99999.0,'11111222,11111222,99999999' 
TABS,ioos:station:wmo:42043:1,2007-06-02T03:00:00Z,28.9818,-94.9186,2.0,239.6639679,25.50165681,-99999.0,'11111222,11111222,99999999' 
TABS,ioos:station:wmo:42043:1,2007-06-02T03:30:00Z,28.9818,-94.9186,2.0,250.7981107,27.18220926,-99999.0,'11111222,11111222,99999999' 
TABS,ioos:station:wmo:42043:1,2007-06-02T04:00:00Z,28.9818,-94.9186,2.0,245.9126708,25.23750384,-99999.0,'11111222,11111222,99999999' 
TABS,ioos:station:wmo:42043:1,2007-06-02T04:30:00Z,28.9818,-94.9186,2.0,239.0749646,20.12021869,-99999.0,'11111222,11111222,99999999' 
TABS,ioos:station:wmo:42043:1,2007-06-02T05:00:00Z,28.9818,-94.9186,2.0,246.6929252,22.26698453,-99999.0,'11111222,11111222,99999999' 
TABS,ioos:station:wmo:42043:1,2007-06-02T05:30:00Z,28.9818,-94.9186,2.0,245.2102255,19.62868564,-99999.0,'11111222,11111222,99999999' 
TABS,ioos:station:wmo:42043:1,2007-06-02T06:00:00Z,28.9818,-94.9186,2.0,245.8805622,20.43391788,-99999.0,'11111222,11111222,99999999' 
TABS,ioos:station:wmo:42043:1,2007-06-02T06:30:00Z,28.9818,-94.9186,2.0,238.6206447,19.87720805,-99999.0,'11111222,11111222,99999999' 
TABS,ioos:station:wmo:42043:1,2007-06-02T07:00:00Z,28.9818,-94.9186,2.0,233.5384808,19.90650647,-99999.0,'11111222,11111222,99999999' 
TABS,ioos:station:wmo:42043:1,2007-06-02T07:30:00Z,28.9818,-94.9186,2.0,237.0387683,19.83213806,-99999.0,'11111222,11111222,99999999' 
TABS,ioos:station:wmo:42043:1,2007-06-02T08:00:00Z,28.9818,-94.9186,2.0,236.2213377,16.20558546,-99999.0,'11111222,11111222,99999999' 
TABS,ioos:station:wmo:42043:1,2007-06-02T08:30:00Z,28.9818,-94.9186,2.0,227.8202251,15.95043887,-99999.0,'11111222,11111222,99999999' 
TABS,ioos:station:wmo:42043:1,2007-06-02T09:00:00Z,28.9818,-94.9186,2.0,235.7981172,17.39886491,-99999.0,'11111222,11111222,99999999' 
TABS,ioos:station:wmo:42043:1,2007-06-02T09:30:00Z,28.9818,-94.9186,2.0,224.9509635,16.63115751,-99999.0,'11111222,11111222,99999999' 
TABS,ioos:station:wmo:42043:1,2007-06-02T10:00:00Z,28.9818,-94.9186,2.0,225.4168187,16.51138092,-99999.0,'11111222,11111222,99999999' 
TABS,ioos:station:wmo:42043:1,2007-06-02T10:30:00Z,28.9818,-94.9186,2.0,224.2955857,15.53630909,-99999.0,'11111222,11111222,99999999' 
TABS,ioos:station:wmo:42043:1,2007-06-02T11:00:00Z,28.9818,-94.9186,2.0,222.6164757,18.53515848,-99999.0,'11111222,11111222,99999999' 
TABS,ioos:station:wmo:42043:1,2007-06-02T11:30:00Z,28.9818,-94.9186,2.0,224.6848762,18.01735275,-99999.0,'11111222,11111222,99999999' 
TABS,ioos:station:wmo:42043:1,2007-06-02T12:00:00Z,28.9818,-94.9186,2.0,211.5395126,17.74071025,-99999.0,'11111222,11111222,99999999' 
TABS,ioos:station:wmo:42043:1,2007-06-02T12:30:00Z,28.9818,-94.9186,2.0,216.2175498,19.68327463,-99999.0,'11111222,11111222,99999999' 
TABS,ioos:station:wmo:42043:1,2007-06-02T13:00:00Z,28.9818,-94.9186,2.0,222.2013097,20.85623648,-99999.0,'11111222,11111222,99999999' 
TABS,ioos:station:wmo:42043:1,2007-06-02T13:30:00Z,28.9818,-94.9186,2.0,218.0239767,21.5423722,-99999.0,'11111222,11111222,99999999' 
TABS,ioos:station:wmo:42043:1,2007-06-02T14:00:00Z,28.9818,-94.9186,2.0,220.9817844,20.8897798,-99999.0,'11111222,11111222,99999999' 
TABS,ioos:station:wmo:42043:1,2007-06-02T14:30:00Z,28.9818,-94.9186,2.0,224.6845299,19.28309363,-99999.0,'11111222,11111222,99999999' 
TABS,ioos:station:wmo:42043:1,2007-06-02T15:00:00Z,28.9818,-94.9186,2.0,231.3873176,16.96984679,-99999.0,'11111222,11111222,99999999' 
TABS,ioos:station:wmo:42043:1,2007-06-02T15:30:00Z,28.9818,-94.9186,2.0,237.5847813,17.94622244,-99999.0,'11111222,11111222,99999999' 
TABS,ioos:station:wmo:42043:1,2007-06-02T16:00:00Z,28.9818,-94.9186,2.0,300.7764972,23.56917691,-99999.0,'11111222,11111222,99999999' 
TABS,ioos:station:wmo:42043:1,2007-06-02T16:30:00Z,28.9818,-94.9186,2.0,306.4411898,19.76455413,-99999.0,'11111222,11111222,99999999' 
TABS,ioos:station:wmo:42043:1,2007-06-02T17:00:00Z,28.9818,-94.9186,2.0,305.1551184,21.91781923,-99999.0,'11111222,11111222,99999999' 
TABS,ioos:station:wmo:42043:1,2007-06-02T17:30:00Z,28.9818,-94.9186,2.0,303.1722645,22.38861541,-99999.0,'11111222,11111222,99999999' 
TABS,ioos:station:wmo:42043:1,2007-06-02T18:00:00Z,28.9818,-94.9186,2.0,291.6373926,23.94736938,-99999.0,'11111222,11111222,99999999' 
TABS,ioos:station:wmo:42043:1,2007-06-02T18:30:00Z,28.9818,-94.9186,2.0,288.4197062,23.19846978,-99999.0,'11111222,11111222,99999999' 
TABS,ioos:station:wmo:42043:1,2007-06-02T19:00:00Z,28.9818,-94.9186,2.0,287.7960335,20.12282535,-99999.0,'11111222,11111222,99999999' 
TABS,ioos:station:wmo:42043:1,2007-06-02T19:30:00Z,28.9818,-94.9186,2.0,278.85948,19.67471728,-99999.0,'11111222,11111222,99999999' 
TABS,ioos:station:wmo:42043:1,2007-06-02T20:00:00Z,28.9818,-94.9186,2.0,283.9368402,18.10288651,-99999.0,'11111222,11111222,99999999' 
TABS,ioos:station:wmo:42043:1,2007-06-02T20:30:00Z,28.9818,-94.9186,2.0,281.5714825,19.79224596,-99999.0,'11111222,11111222,99999999' 
TABS,ioos:station:wmo:42043:1,2007-06-02T21:00:00Z,28.9818,-94.9186,2.0,281.0886815,18.2507041,-99999.0,'11111222,11111222,99999999' 
TABS,ioos:station:wmo:42043:1,2007-06-02T21:30:00Z,28.9818,-94.9186,2.0,269.9122382,19.68002287,-99999.0,'11111222,11111222,99999999' 
TABS,ioos:station:wmo:42043:1,2007-06-02T22:00:00Z,28.9818,-94.9186,2.0,269.6260421,19.94042377,-99999.0,'11111222,11111222,99999999' 
TABS,ioos:station:wmo:42043:1,2007-06-02T22:30:00Z,28.9818,-94.9186,2.0,258.5569831,21.17079356,-99999.0,'11111222,11111222,99999999' 
TABS,ioos:station:wmo:42043:1,2007-06-02T23:00:00Z,28.9818,-94.9186,2.0,265.0663556,17.67547736,-99999.0,'11111222,11111222,99999999' 
TABS,ioos:station:wmo:42043:1,2007-06-02T23:30:00Z,28.9818,-94.9186,2.0,267.5253804,17.83662804,-99999.0,'11111222,11111222,99999999' 
TABS,ioos:station:wmo:42043:1,2007-06-03T00:00:00Z,28.9818,-94.9186,2.0,268.8611616,15.60307982,-99999.0,'11111222,11111222,99999999' 
TABS,ioos:station:wmo:42043:1,2007-06-03T00:30:00Z,28.9818,-94.9186,2.0,267.3375979,13.13417299,-99999.0,'11111222,11111222,99999999' 
TABS,ioos:station:wmo:42043:1,2007-06-03T01:00:00Z,28.9818,-94.9186,2.0,261.1481858,15.7273011,-99999.0,'11111222,11111222,99999999' 
TABS,ioos:station:wmo:42043:1,2007-06-03T01:30:00Z,28.9818,-94.9186,2.0,255.3609964,12.22689658,-99999.0,'11111222,11111222,99999999' 
TABS,ioos:station:wmo:42043:1,2007-06-03T02:00:00Z,28.9818,-94.9186,2.0,263.623761,12.42686203,-99999.0,'11111222,11111222,99999999' 
TABS,ioos:station:wmo:42043:1,2007-06-03T02:30:00Z,28.9818,-94.9186,2.0,256.5437676,13.40805728,-99999.0,'11111222,11111222,99999999' 
TABS,ioos:station:wmo:42043:1,2007-06-03T03:00:00Z,28.9818,-94.9186,2.0,252.411168,10.06030318,-99999.0,'11111222,11111222,99999999' 
TABS,ioos:station:wmo:42043:1,2007-06-03T03:30:00Z,28.9818,-94.9186,2.0,252.3534978,12.4036285,-99999.0,'11111222,11111222,99999999' 
TABS,ioos:station:wmo:42043:1,2007-06-03T04:00:00Z,28.9818,-94.9186,2.0,264.658851,10.63617412,-99999.0,'11111222,11111222,99999999' 
TABS,ioos:station:wmo:42043:1,2007-06-03T04:30:00Z,28.9818,-94.9186,2.0,264.6725499,7.4320993,-99999.0,'11133222,11111222,99999999' 
TABS,ioos:station:wmo:42043:1,2007-06-03T05:00:00Z,28.9818,-94.9186,2.0,269.0489642,9.041244383,-99999.0,'11133222,11111222,99999999' 
TABS,ioos:station:wmo:42043:1,2007-06-03T05:30:00Z,28.9818,-94.9186,2.0,305.227442,5.790379953,-99999.0,'11133222,11111222,99999999' 
TABS,ioos:station:wmo:42043:1,2007-06-03T06:00:00Z,28.9818,-94.9186,2.0,310.8636673,7.351850107,-99999.0,'11133222,11111222,99999999' 
TABS,ioos:station:wmo:42043:1,2007-06-03T06:30:00Z,28.9818,-94.9186,2.0,309.8058989,4.686149806,-99999.0,'11133222,11111222,99999999' 
TABS,ioos:station:wmo:42043:1,2007-06-03T07:00:00Z,28.9818,-94.9186,2.0,340.792578,6.565485511,-99999.0,'11133222,11111222,99999999' 
TABS,ioos:station:wmo:42043:1,2007-06-03T07:30:00Z,28.9818,-94.9186,2.0,331.8861162,7.278825455,-99999.0,'11133222,11111222,99999999' 
TABS,ioos:station:wmo:42043:1,2007-06-03T08:00:00Z,28.9818,-94.9186,2.0,344.5255164,8.695217076,-99999.0,'11133222,11111222,99999999' 
TABS,ioos:station:wmo:42043:1,2007-06-03T08:30:00Z,28.9818,-94.9186,2.0,357.2856395,9.290425179,-99999.0,'11133222,11111222,99999999' 
TABS,ioos:station:wmo:42043:1,2007-06-03T09:00:00Z,28.9818,-94.9186,2.0,15.23310308,9.058255903,-99999.0,'11133222,11111222,99999999' 
TABS,ioos:station:wmo:42043:1,2007-06-03T09:30:00Z,28.9818,-94.9186,2.0,18.49971101,8.414826201,-99999.0,'11133222,11111222,99999999' 
TABS,ioos:station:wmo:42043:1,2007-06-03T10:00:00Z,28.9818,-94.9186,2.0,18.33547167,9.091562022,-99999.0,'11133222,11111222,99999999' 
TABS,ioos:station:wmo:42043:1,2007-06-03T10:30:00Z,28.9818,-94.9186,2.0,21.85856536,7.466813243,-99999.0,'11133222,11111222,99999999' 
TABS,ioos:station:wmo:42043:1,2007-06-03T11:00:00Z,28.9818,-94.9186,2.0,42.24762627,8.834885398,-99999.0,'11133222,11111222,99999999' 
TABS,ioos:station:wmo:42043:1,2007-06-03T11:30:00Z,28.9818,-94.9186,2.0,51.83027572,7.669973924,-99999.0,'11133222,11111222,99999999' 
TABS,ioos:station:wmo:42043:1,2007-06-03T12:00:00Z,28.9818,-94.9186,2.0,43.68259036,7.688283293,-99999.0,'11133222,11111222,99999999' 
TABS,ioos:station:wmo:42043:1,2007-06-03T12:30:00Z,28.9818,-94.9186,2.0,40.59382334,8.191294159,-99999.0,'11133222,11111222,99999999' 
TABS,ioos:station:wmo:42043:1,2007-06-03T13:00:00Z,28.9818,-94.9186,2.0,51.69062058,6.129934747,-99999.0,'11133222,11111222,99999999' 
TABS,ioos:station:wmo:42043:1,2007-06-03T13:30:00Z,28.9818,-94.9186,2.0,33.87867104,8.431488599,-99999.0,'11133222,11111222,99999999' 
TABS,ioos:station:wmo:42043:1,2007-06-03T14:00:00Z,28.9818,-94.9186,2.0,32.91306403,7.36154875,-99999.0,'11133222,11111222,99999999' 
TABS,ioos:station:wmo:42043:1,2007-06-03T14:30:00Z,28.9818,-94.9186,2.0,42.44436093,9.038744382,-99999.0,'11133222,11111222,99999999' 
TABS,ioos:station:wmo:42043:1,2007-06-03T15:00:00Z,28.9818,-94.9186,2.0,93.75060557,8.408008088,-99999.0,'11133222,11111222,99999999' 
TABS,ioos:station:wmo:42043:1,2007-06-03T15:30:00Z,28.9818,-94.9186,2.0,122.1711419,4.394769619,-99999.0,'11133222,11111222,99999999' 
TABS,ioos:station:wmo:42043:1,2007-06-03T16:00:00Z,28.9818,-94.9186,2.0,89.42591455,4.990250495,-99999.0,'11133222,11111222,99999999' 
TABS,ioos:station:wmo:42043:1,2007-06-03T16:30:00Z,28.9818,-94.9186,2.0,75.65070151,4.438468204,-99999.0,'11133222,11111222,99999999' 
TABS,ioos:station:wmo:42043:1,2007-06-03T17:00:00Z,28.9818,-94.9186,2.0,75.65310657,10.73478458,-99999.0,'11111222,11111222,99999999' 
TABS,ioos:station:wmo:42043:1,2007-06-03T17:30:00Z,28.9818,-94.9186,2.0,76.20571923,13.21103327,-99999.0,'11111222,11111222,99999999' 
TABS,ioos:station:wmo:42043:1,2007-06-03T18:30:00Z,28.9818,-94.9186,2.0,82.93162276,11.2958488,-99999.0,'11111222,11111222,99999999' 
TABS,ioos:station:wmo:42043:1,2007-06-03T19:00:00Z,28.9818,-94.9186,2.0,81.51107597,11.5161669,-99999.0,'11111222,11111222,99999999' 
TABS,ioos:station:wmo:42043:1,2007-06-03T19:30:00Z,28.9818,-94.9186,2.0,86.96156605,10.5648521,-99999.0,'11111222,11111222,99999999' 
TABS,ioos:station:wmo:42043:1,2007-06-03T20:00:00Z,28.9818,-94.9186,2.0,84.83529869,12.21961129,-99999.0,'11111222,11111222,99999999' 
TABS,ioos:station:wmo:42043:1,2007-06-03T20:30:00Z,28.9818,-94.9186,2.0,92.1161973,12.99886534,-99999.0,'11111222,11111222,99999999' 
TABS,ioos:station:wmo:42043:1,2007-06-03T21:00:00Z,28.9818,-94.9186,2.0,88.4900855,12.14421673,-99999.0,'11111222,11111222,99999999' 
TABS,ioos:station:wmo:42043:1,2007-06-03T21:30:00Z,28.9818,-94.9186,2.0,85.51764886,9.980526038,-99999.0,'11133222,11111222,99999999' 
TABS,ioos:station:wmo:42043:1,2007-06-03T22:00:00Z,28.9818,-94.9186,2.0,71.87818213,10.99540359,-99999.0,'11111222,11111222,99999999' 
TABS,ioos:station:wmo:42043:1,2007-06-03T22:30:00Z,28.9818,-94.9186,2.0,70.47449145,14.12212803,-99999.0,'11111222,11111222,99999999' 
TABS,ioos:station:wmo:42043:1,2007-06-03T23:00:00Z,28.9818,-94.9186,2.0,65.29558484,15.28934923,-99999.0,'11111222,11111222,99999999' 
TABS,ioos:station:wmo:42043:1,2007-06-03T23:30:00Z,28.9818,-94.9186,2.0,62.37194481,17.59641157,-99999.0,'11111222,11111222,99999999' 
TABS,ioos:station:wmo:42043:1,2007-06-04T00:00:00Z,28.9818,-94.9186,2.0,63.79788283,19.77170959,-99999.0,'11111222,11111222,99999999' 
TABS,ioos:station:wmo:42043:1,2007-06-04T00:30:00Z,28.9818,-94.9186,2.0,54.78248939,19.76821944,-99999.0,'11111222,11111222,99999999' 
TABS,ioos:station:wmo:42043:1,2007-06-04T01:00:00Z,28.9818,-94.9186,2.0,57.42430921,23.53205898,-99999.0,'11111222,11111222,99999999' 
TABS,ioos:station:wmo:42043:1,2007-06-04T01:30:00Z,28.9818,-94.9186,2.0,66.70708583,36.66868419,-99999.0,'11111222,11111222,99999999' 
TABS,ioos:station:wmo:42043:1,2007-06-04T02:00:00Z,28.9818,-94.9186,2.0,68.17723357,39.75923163,-99999.0,'11111222,11111222,99999999' 
TABS,ioos:station:wmo:42043:1,2007-06-04T02:30:00Z,28.9818,-94.9186,2.0,64.95717852,45.28741326,-99999.0,'11111222,11111222,99999999' 
TABS,ioos:station:wmo:42043:1,2007-06-04T03:00:00Z,28.9818,-94.9186,2.0,69.28425967,47.43696133,-99999.0,'11111222,11111222,99999999' 
TABS,ioos:station:wmo:42043:1,2007-06-04T03:30:00Z,28.9818,-94.9186,2.0,67.39064717,50.56615469,-99999.0,'11111222,11111222,99999999' 
TABS,ioos:station:wmo:42043:1,2007-06-04T04:00:00Z,28.9818,-94.9186,2.0,67.0647431,50.57845885,-99999.0,'11111222,11111222,99999999' 
TABS,ioos:station:wmo:42043:1,2007-06-04T04:30:00Z,28.9818,-94.9186,2.0,67.04363616,55.91865699,-99999.0,'11111222,11111222,99999999' 
TABS,ioos:station:wmo:42043:1,2007-06-04T05:00:00Z,28.9818,-94.9186,2.0,67.5383012,55.74944305,-99999.0,'11111222,11111222,99999999' 
TABS,ioos:station:wmo:42043:1,2007-06-04T05:30:00Z,28.9818,-94.9186,2.0,69.30950346,55.8416556,-99999.0,'11111222,11111222,99999999' 
TABS,ioos:station:wmo:42043:1,2007-06-04T06:00:00Z,28.9818,-94.9186,2.0,66.77913302,60.64256756,-99999.0,'11111222,11111222,99999999' 
TABS,ioos:station:wmo:42043:1,2007-06-04T06:30:00Z,28.9818,-94.9186,2.0,75.16921644,63.83666423,-99999.0,'11111222,11111222,99999999' 
TABS,ioos:station:wmo:42043:1,2007-06-04T07:30:00Z,28.9818,-94.9186,2.0,86.84021174,68.2137061,-99999.0,'11111222,11111222,99999999' 
TABS,ioos:station:wmo:42043:1,2007-06-04T08:00:00Z,28.9818,-94.9186,2.0,87.82677485,62.23476279,-99999.0,'11111222,11111222,99999999' 
TABS,ioos:station:wmo:42043:1,2007-06-04T08:30:00Z,28.9818,-94.9186,2.0,89.97987155,56.93000351,-99999.0,'11111222,11111222,99999999' 
TABS,ioos:station:wmo:42043:1,2007-06-04T09:00:00Z,28.9818,-94.9186,2.0,96.25792993,53.85088486,-99999.0,'11111222,11111222,99999999' 
TABS,ioos:station:wmo:42043:1,2007-06-04T09:30:00Z,28.9818,-94.9186,2.0,99.85123752,50.61632642,-99999.0,'11111222,11111222,99999999' 
TABS,ioos:station:wmo:42043:1,2007-06-04T10:00:00Z,28.9818,-94.9186,2.0,96.92384637,49.10813476,-99999.0,'11111222,11111222,99999999' 
TABS,ioos:station:wmo:42043:1,2007-06-04T10:30:00Z,28.9818,-94.9186,2.0,96.97667648,53.1837917,-99999.0,'11111222,11111222,99999999' 
TABS,ioos:station:wmo:42043:1,2007-06-04T11:00:00Z,28.9818,-94.9186,2.0,101.2239986,48.39563307,-99999.0,'11111222,11111222,99999999' 
TABS,ioos:station:wmo:42043:1,2007-06-04T11:30:00Z,28.9818,-94.9186,2.0,101.9007624,46.2133022,-99999.0,'11111222,11111222,99999999' 
TABS,ioos:station:wmo:42043:1,2007-06-04T12:00:00Z,28.9818,-94.9186,2.0,108.6950062,44.58224983,-99999.0,'11111222,11111222,99999999' 
TABS,ioos:station:wmo:42043:1,2007-06-04T12:30:00Z,28.9818,-94.9186,2.0,104.5807371,45.68122262,-99999.0,'11111222,11111222,99999999' 
TABS,ioos:station:wmo:42043:1,2007-06-04T13:00:00Z,28.9818,-94.9186,2.0,99.93359801,40.17225162,-99999.0,'11111222,11111222,99999999' 
TABS,ioos:station:wmo:42043:1,2007-06-04T13:30:00Z,28.9818,-94.9186,2.0,109.2028697,34.44662248,-99999.0,'11111222,11111222,99999999' 
TABS,ioos:station:wmo:42043:1,2007-06-04T14:00:00Z,28.9818,-94.9186,2.0,111.6965514,34.51525025,-99999.0,'11111222,11111222,99999999' 
TABS,ioos:station:wmo:42043:1,2007-06-04T14:30:00Z,28.9818,-94.9186,2.0,115.8777688,31.320621,-99999.0,'11111222,11111222,99999999' 
TABS,ioos:station:wmo:42043:1,2007-06-04T15:00:00Z,28.9818,-94.9186,2.0,128.1106783,27.70649743,-99999.0,'11111222,11111222,99999999' 
TABS,ioos:station:wmo:42043:1,2007-06-04T15:30:00Z,28.9818,-94.9186,2.0,127.676739,24.85246467,-99999.0,'11111222,11111222,99999999' 
TABS,ioos:station:wmo:42043:1,2007-06-04T16:00:00Z,28.9818,-94.9186,2.0,128.6297538,20.90386089,-99999.0,'11111222,11111222,99999999' 
TABS,ioos:station:wmo:42043:1,2007-06-04T16:30:00Z,28.9818,-94.9186,2.0,136.4558646,17.81069903,-99999.0,'11111222,11111222,99999999' 
TABS,ioos:station:wmo:42043:1,2007-06-04T17:00:00Z,28.9818,-94.9186,2.0,122.0980437,16.3727487,-99999.0,'11111222,11111222,99999999' 